1500872400.37,4647,20.88,74008.0,10.59,-17.59,-18.49,0,*7F
1500872401.62,4648,20.88,74006.5,10.61,-17.45,-18.45,0,*7A
1500872402.85,4649,20.88,74004.8,10.61,-17.69,-18.59,0,*78
1500872404.06,4650,20.88,74006.0,10.61,-17.83,-18.79,0,*76
1500872405.27,4651,20.88,74008.0,10.61,-18.07,-19.07,0,*7C
1500872406.46,4652,20.88,74006.3,10.67,-18.73,-19.75,0,*7F
1500872407.66,4653,20.88,74006.8,10.63,-18.49,-19.51,0,*75
1500872408.86,4654,20.88,74004.0,10.63,-18.69,-19.75,0,*76
1500872410.1,4655,20.88,74008.0,10.61,-18.73,-19.81,0,*75
1500872411.32,4656,20.88,74008.5,10.61,-18.21,-19.13,0,*7A
1500872412.5,4657,20.88,74006.3,10.67,-18.17,-19.07,0,*7D
1500872413.72,4658,20.88,74004.0,10.63,-18.45,-19.65,0,*75
1500872415.0,4659,20.88,74008.0,10.61,-19.41,-20.49,0,*77
1500872416.26,4660,20.88,74010.5,10.61,-19.81,-20.83,0,*77
1500872417.47,4661,20.88,74014.8,10.59,-20.05,-21.03,0,*72
1500872418.68,4662,20.88,74012.0,10.59,-19.47,-20.39,0,*75
1500872419.92,4663,20.88,74010.5,10.57,-19.07,-20.15,0,*70
1500872421.17,4664,20.88,74010.5,10.57,-18.73,-19.81,0,*72
1500872422.39,4665,20.88,74012.8,10.57,-18.83,-19.91,0,*7D
1500872423.59,4666,20.88,74010.3,10.59,-18.83,-19.91,0,*70
1500872424.82,4667,20.88,74010.3,10.59,-19.31,-20.39,0,*71
1500872426.04,4668,20.88,74010.5,10.59,-19.75,-20.79,0,*7A
1500872427.26,4669,20.88,74014.3,10.57,-19.03,-20.09,0,*73
1500872428.51,4670,20.88,74014.8,10.55,-18.59,-19.65,0,*77
1500872429.76,4671,20.88,74012.0,10.55,-18.59,-19.61,0,*72
1500872430.96,4672,20.88,74014.0,10.55,-18.45,-19.51,0,*7F
1500872432.2,4673,20.88,74014.8,10.57,-18.25,-19.23,0,*7F
1500872433.47,4674,20.88,74014.3,10.57,-18.59,-19.65,0,*71
1500872434.72,4675,20.88,74014.5,10.57,-18.69,-19.61,0,*77
1500872435.94,4676,20.88,74010.0,10.59,-18.69,-19.61,0,*7A
1500872437.14,4677,20.88,74012.3,10.59,-18.79,-19.75,0,*7F
1500872438.37,4678,20.88,74010.5,10.57,-19.17,-20.25,0,*78
1500872439.62,4679,20.88,74014.0,10.57,-18.59,-19.75,0,*7D
1500872440.86,4680,20.88,74012.8,10.57,-18.31,-19.47,0,*74
1500872442.14,4681,20.88,74010.0,10.57,-18.31,-19.31,0,*74
1500872443.38,4682,20.88,74016.5,10.57,-18.01,-19.07,0,*71
1500872444.63,4683,20.88,74014.5,10.57,-18.31,-19.17,0,*72
1500872445.87,4684,20.88,74018.8,10.57,-18.25,-19.23,0,*77
1500872447.1,4685,20.88,74012.3,10.59,-18.49,-19.57,0,*71
1500872448.33,4686,20.88,74012.8,10.59,-18.65,-19.57,0,*7C
1500872449.52,4687,20.88,74010.5,10.59,-18.07,-19.03,0,*78
1500872450.72,4688,20.88,74012.0,10.59,-18.11,-19.17,0,*75
1500872451.97,4689,20.88,74008.8,10.59,-19.41,-20.49,0,*71
1500872453.17,4690,20.88,74008.8,10.59,-19.71,-20.69,0,*78
1500872454.43,4691,20.88,74006.5,10.57,-19.51,-20.53,0,*7C
1500872455.63,4692,20.88,74010.3,10.55,-19.75,-20.89,0,*7C
1500872456.89,4693,20.88,74008.8,10.55,-19.65,-20.83,0,*76
1500872458.12,4694,20.88,74004.3,10.55,-19.61,-20.59,0,*72
1500872459.35,4695,20.88,74002.0,10.55,-19.31,-20.25,0,*7D
1500872460.59,4696,20.88,74002.3,10.53,-20.15,-21.13,0,*70
1500872461.82,4697,20.88,74004.3,10.51,-19.85,-20.93,0,*79
1500872463.04,4698,20.88,74006.8,10.51,-19.57,-20.69,0,*7C
1500872464.27,4699,20.88,74004.5,10.51,-19.61,-20.69,0,*78
1500872465.52,4700,20.88,74006.8,10.49,-19.85,-20.93,0,*7F
1500872466.71,4701,20.88,74008.0,10.51,-20.09,-21.13,0,*70
1500872467.96,4702,20.88,74006.5,10.49,-20.25,-21.27,0,*73
1500872469.19,4703,20.88,74008.8,10.49,-19.71,-20.73,0,*79
1500872470.44,4704,20.88,74008.0,10.47,-19.81,-20.83,0,*70
1500872471.7,4705,20.88,74002.0,10.45,-19.65,-20.89,0,*73
1500872472.97,4706,20.88,74004.5,10.45,-20.15,-21.23,0,*7C
1500872474.23,4707,20.88,74002.5,10.45,-19.61,-20.59,0,*78
1500872475.47,4708,20.88,73996.0,10.45,-19.91,-20.99,0,*74
1500872476.72,4709,20.88,73996.8,10.45,-20.15,-21.17,0,*74
1500872477.93,4710,20.88,74000.8,10.41,-20.09,-21.13,0,*71
1500872479.16,4711,20.88,74006.8,10.41,-19.95,-21.13,0,*7F
1500872480.38,4712,20.88,74004.0,10.39,-19.85,-21.09,0,*79
1500872481.63,4713,20.88,74006.0,10.39,-19.85,-20.99,0,*70
1500872482.9,4714,20.88,74004.8,10.37,-20.19,-21.27,0,*72
1500872484.15,4715,20.88,74008.0,10.35,-19.91,-21.03,0,*7D
1500872485.37,4716,20.88,74008.3,10.35,-19.51,-20.69,0,*7F
1500872486.63,4717,20.88,74008.8,10.37,-19.41,-20.39,0,*78
1500872487.89,4718,20.88,74010.3,10.37,-18.79,-19.57,0,*7F
1500872489.12,4719,20.88,74012.0,10.39,-18.41,-19.31,0,*7B
1500872490.37,4720,20.88,74010.8,10.37,-19.13,-20.15,0,*75
1500872491.66,4721,20.88,74012.3,10.37,-19.31,-20.49,0,*7D
1500872492.89,4722,20.88,74010.0,10.37,-19.71,-20.63,0,*72
1500872494.12,4723,20.88,74010.5,10.37,-19.07,-19.99,0,*7D
1500872495.34,4724,20.88,74008.3,10.37,-18.69,-19.75,0,*71
1500872496.57,4725,20.88,74008.3,10.37,-18.99,-20.05,0,*72
1500872497.83,4726,20.88,74010.3,10.37,-19.17,-20.19,0,*7B
1500872499.05,4727,20.88,74008.0,10.39,-19.07,-20.15,0,*79
1500872500.33,4728,20.88,74006.8,10.37,-18.93,-20.15,0,*74
1500872501.57,4729,20.88,74008.5,10.37,-18.99,-20.15,0,*7F
1500872502.81,4730,20.88,74006.0,10.37,-19.17,-20.25,0,*73
1500872504.04,4731,20.88,74008.0,10.37,-19.17,-20.25,0,*72
1500872505.3,4732,20.88,74006.0,10.37,-18.93,-20.05,0,*7E
1500872506.58,4733,20.88,74006.0,10.37,-19.27,-20.19,0,*7C
1500872507.87,4734,20.88,74010.3,10.37,-18.55,-19.57,0,*7F
1500872509.09,4735,20.88,74008.0,10.37,-18.79,-19.75,0,*70
1500872510.29,4736,20.88,74008.8,10.39,-18.65,-19.47,0,*71
1500872511.51,4737,20.88,74008.3,10.39,-17.93,-18.83,0,*7F
1500872512.71,4738,20.88,74010.3,10.39,-17.73,-18.65,0,*76
1500872513.95,4739,20.88,74008.3,10.45,-17.59,-18.45,0,*76
1500872515.18,4740,20.88,74008.8,10.47,-17.41,-18.41,0,*77
1500872516.42,4741,20.88,74008.0,10.41,-17.97,-19.03,0,*7C
1500872517.63,4742,20.88,74010.3,10.45,-18.11,-19.07,0,*7E
1500872518.86,4743,20.88,74008.8,10.47,-17.97,-18.99,0,*7A
1500872520.11,4744,20.88,74010.0,10.47,-18.59,-19.65,0,*72
1500872521.31,4745,20.88,74010.3,10.47,-18.45,-19.37,0,*79
1500872522.51,4746,20.88,74014.3,10.47,-18.07,-18.99,0,*79
1500872523.76,4747,20.88,74010.5,10.49,-18.65,-19.57,0,*71
1500872525.02,4748,20.88,74014.3,10.49,-18.65,-19.57,0,*7E
1500872526.27,4749,20.88,74008.5,10.49,-18.49,-19.41,0,*76
1500872527.55,4750,20.88,74008.5,10.53,-18.31,-19.27,0,*7A
1500872528.79,4751,20.88,74010.3,10.53,-18.49,-19.41,0,*74
1500872530.02,4752,20.88,74010.3,10.51,-18.69,-19.57,0,*70
1500872531.25,4753,20.88,74010.5,10.51,-18.83,-19.85,0,*7A
1500872532.47,4754,20.88,74012.0,10.51,-18.79,-19.85,0,*78
1500872533.67,4755,20.88,74010.0,10.51,-18.69,-19.71,0,*73
1500872534.92,4756,20.88,74010.0,10.51,-18.55,-19.61,0,*7E
1500872536.19,4757,20.88,74012.3,10.53,-18.31,-19.27,0,*7D
1500872537.41,4758,20.88,74010.5,10.53,-18.07,-18.99,0,*73
1500872538.61,4759,20.88,74008.0,10.51,-18.21,-19.17,0,*73
1500872539.82,4760,20.88,74012.8,10.51,-17.93,-18.83,0,*73
1500872541.05,4761,20.88,74008.3,10.53,-17.83,-18.65,0,*79
1500872542.27,4762,20.88,74012.8,10.53,-17.83,-18.65,0,*7A
1500872543.49,4763,20.88,74010.3,10.55,-17.93,-18.73,0,*7B
1500872544.68,4764,20.88,74010.8,10.55,-18.11,-19.07,0,*7B
1500872545.9,4765,20.88,74010.5,10.55,-17.93,-18.83,0,*72
1500872547.14,4766,20.88,74010.5,10.57,-17.63,-18.45,0,*76
1500872548.41,4767,20.88,74012.8,10.57,-17.63,-18.31,0,*74
1500872549.65,4768,20.88,74008.5,10.59,-17.59,-18.35,0,*78
1500872550.87,4769,20.88,74008.5,10.59,-17.97,-18.83,0,*76
1500872552.1,4770,20.88,74008.8,10.59,-18.41,-19.41,0,*75
1500872553.32,4771,20.88,74012.3,10.59,-18.49,-19.41,0,*7C
1500872554.53,4772,20.88,74012.5,10.59,-19.17,-19.95,0,*7C
1500872555.78,4773,20.88,74010.5,10.57,-19.23,-20.09,0,*7B
1500872557.0,4774,20.88,74008.5,10.57,-18.41,-19.37,0,*7E
1500872558.23,4775,20.88,74006.3,10.59,-18.41,-19.31,0,*77
1500872559.45,4776,20.88,74004.0,10.59,-18.83,-19.85,0,*75
1500872560.68,4777,20.88,74004.5,10.59,-18.41,-19.31,0,*75
1500872561.91,4778,20.88,74004.8,10.59,-18.49,-19.57,0,*72
1500872563.13,4779,20.88,74006.5,10.57,-18.83,-19.75,0,*7B
1500872564.33,4780,20.88,74006.3,10.59,-18.79,-19.71,0,*72
1500872565.52,4781,20.88,74006.5,10.59,-18.79,-19.71,0,*73
1500872566.77,4782,20.88,74006.3,10.57,-18.55,-19.51,0,*72
1500872568.0,4783,20.88,74008.5,10.61,-18.01,-19.07,0,*74
1500872569.22,4784,20.88,74010.8,10.59,-18.55,-19.47,0,*7D
1500872570.45,4785,20.88,74008.5,10.59,-18.69,-19.61,0,*77
1500872571.64,4786,20.88,74010.3,10.59,-18.79,-19.71,0,*74
1500872572.89,4787,20.88,74010.0,10.59,-18.35,-19.31,0,*79
1500872574.13,4788,20.88,74008.8,10.59,-17.93,-18.89,0,*77
1500872575.4,4789,20.88,74012.0,10.61,-17.55,-18.35,0,*70
1500872576.62,4790,20.88,74014.8,10.59,-17.59,-18.65,0,*7A
1500872577.84,4791,20.88,74010.5,10.61,-18.07,-18.99,0,*77
1500872579.03,4792,20.88,74010.8,10.67,-18.41,-19.37,0,*75
1500872580.25,4793,20.88,74008.5,10.63,-18.45,-19.23,0,*71
1500872581.48,4794,20.88,74008.3,10.63,-18.31,-19.13,0,*76
1500872582.66,4795,20.88,74008.0,10.67,-18.11,-19.07,0,*74
1500872583.84,4796,20.88,74010.3,10.67,-18.17,-19.07,0,*71
1500872585.03,4797,20.88,74008.5,10.67,-18.73,-19.75,0,*77
1500872586.25,4798,20.88,74010.8,10.67,-18.79,-19.85,0,*7D
1500872587.47,4799,20.94,74018.0,10.67,-18.69,-19.61,0,*77
1500872588.68,4800,20.88,74012.0,10.63,-17.93,-18.79,0,*7E
1500872589.93,4801,20.88,74012.3,10.67,-17.55,-18.31,0,*7D
1500872591.12,4802,20.88,74008.0,10.69,-17.49,-18.25,0,*78
1500872592.37,4803,20.88,74014.0,10.71,-17.21,-18.11,0,*79
1500872593.64,4804,20.88,74010.5,10.71,-17.97,-18.89,0,*72
1500872594.88,4805,20.88,74012.8,10.73,-17.55,-18.35,0,*78
1500872596.16,4806,20.88,74012.5,10.75,-17.45,-18.31,0,*78
1500872597.4,4807,20.88,74014.0,10.75,-17.55,-18.21,0,*79
1500872598.64,4808,20.88,74012.3,10.77,-17.21,-18.01,0,*75
1500872599.83,4809,20.88,74012.0,10.77,-16.93,-17.83,0,*79
1500872601.11,4810,20.88,74012.8,10.79,-17.17,-17.97,0,*77
1500872602.33,4811,20.88,74012.3,10.79,-17.49,-18.49,0,*71
1500872603.56,4812,20.88,74012.8,10.79,-17.79,-18.83,0,*77
1500872604.81,4813,20.88,74014.3,10.79,-17.45,-18.21,0,*71
1500872606.06,4814,20.88,74012.0,10.79,-17.49,-18.35,0,*7F
1500872607.27,4815,20.88,74016.3,10.83,-17.73,-18.79,0,*7A
1500872608.5,4816,20.88,74014.8,10.83,-17.73,-18.55,0,*77
1500872609.74,4817,20.88,74012.8,10.83,-17.63,-18.49,0,*7A
1500872610.96,4818,20.88,74014.5,10.89,-17.41,-18.21,0,*71
1500872612.17,4819,20.88,74014.3,10.85,-16.89,-17.79,0,*7B
1500872613.39,4820,20.88,74010.3,10.85,-16.59,-17.59,0,*7E
1500872614.59,4821,20.88,74014.3,10.89,-16.83,-17.73,0,*7C
1500872615.81,4822,20.88,74012.0,10.89,-17.35,-17.97,0,*79
1500872617.0,4823,20.88,74012.3,10.93,-17.31,-18.11,0,*76
1500872618.25,4824,20.88,74010.3,10.93,-17.17,-17.97,0,*74
1500872619.48,4825,20.88,74012.8,10.93,-17.63,-18.59,0,*7B
1500872620.67,4826,20.88,74010.5,10.93,-17.83,-18.69,0,*75
1500872621.95,4827,20.88,74012.3,10.95,-17.17,-17.93,0,*75
1500872623.22,4828,20.88,74012.0,10.95,-17.17,-17.93,0,*7A
1500872624.5,4829,20.88,74012.0,10.95,-17.45,-18.31,0,*7B
1500872625.71,4830,20.88,74014.5,10.97,-17.21,-18.17,0,*77
1500872626.9,4831,20.88,74014.0,10.97,-17.87,-18.79,0,*72
1500872628.11,4832,20.88,74012.0,10.97,-17.87,-18.89,0,*7E
1500872629.35,4833,20.88,74014.0,10.99,-17.79,-18.73,0,*75
1500872630.57,4834,20.88,74012.3,10.95,-17.87,-18.65,0,*78
1500872631.76,4835,20.88,74008.5,10.97,-17.69,-18.65,0,*7B
1500872633.01,4836,20.88,74008.0,10.97,-17.45,-18.35,0,*73
1500872634.25,4837,20.88,74012.3,11.01,-17.63,-18.59,0,*72
1500872635.46,4838,20.88,74008.5,10.97,-17.97,-18.79,0,*7A
1500872636.65,4839,20.88,74012.0,10.97,-17.87,-18.79,0,*7A
1500872637.89,4840,20.88,74010.3,10.99,-17.41,-18.25,0,*79
1500872639.12,4841,20.88,74010.8,10.99,-17.93,-18.83,0,*7B
1500872640.32,4842,20.88,74008.5,11.01,-18.45,-19.37,0,*72
1500872641.58,4843,20.88,74012.0,10.99,-19.27,-20.09,0,*71
1500872642.85,4844,20.88,74012.0,10.99,-18.31,-19.31,0,*71
1500872644.04,4845,20.88,74014.0,10.97,-17.83,-18.73,0,*7F
1500872645.28,4846,20.88,74014.5,10.99,-17.97,-18.99,0,*73
1500872646.49,4847,20.88,74008.8,10.99,-18.07,-19.03,0,*76
1500872647.7,4848,20.88,74014.5,10.99,-18.11,-19.13,0,*7F
1500872648.94,4849,20.88,74006.8,10.99,-17.97,-18.99,0,*7C
1500872650.15,4850,20.88,74008.0,10.99,-18.11,-19.03,0,*77
1500872651.39,4851,20.88,74008.5,10.99,-17.83,-18.89,0,*71
1500872652.64,4852,20.88,74008.0,10.99,-17.79,-18.59,0,*7A
1500872653.89,4853,20.88,74008.0,11.01,-17.55,-18.55,0,*79
1500872655.09,4854,20.88,74010.0,11.01,-17.49,-18.45,0,*72
1500872656.32,4855,20.88,74000.8,11.01,-17.93,-18.73,0,*71
1500872657.56,4856,20.88,74006.0,11.01,-17.93,-18.89,0,*77
1500872658.76,4857,20.88,74004.8,11.01,-18.21,-19.17,0,*76
1500872660.04,4858,20.88,74008.5,11.03,-17.63,-18.55,0,*75
1500872661.26,4859,20.88,74000.8,11.03,-18.07,-19.07,0,*7F
1500872662.54,4860,20.88,74004.8,11.03,-18.35,-19.27,0,*76
1500872663.82,4861,20.88,74002.5,11.03,-17.93,-18.93,0,*7A
1500872665.08,4862,20.88,74002.5,11.03,-18.17,-19.27,0,*74
1500872666.31,4863,20.88,74006.8,11.05,-18.25,-19.31,0,*75
1500872667.56,4864,20.88,74010.0,11.03,-18.25,-19.27,0,*73
1500872668.82,4865,20.88,74010.3,11.03,-18.17,-19.27,0,*73
1500872670.08,4866,20.88,74008.3,11.05,-18.35,-19.27,0,*76
1500872671.31,4867,20.88,74010.0,11.05,-18.49,-19.41,0,*7C
1500872672.56,4868,20.88,74006.5,11.03,-18.01,-18.99,0,*7D
1500872673.82,4869,20.88,74006.5,11.03,-18.83,-19.85,0,*7A
1500872675.08,4870,20.88,74008.8,11.03,-18.69,-19.61,0,*7C
1500872676.29,4871,20.88,74008.0,11.05,-18.79,-19.71,0,*7B
1500872677.52,4872,20.88,74006.8,11.03,-18.99,-19.91,0,*7E
1500872678.75,4873,20.88,74008.5,11.01,-18.83,-19.65,0,*7D
1500872679.96,4874,20.88,74008.3,11.05,-18.49,-19.47,0,*78
1500872681.19,4875,20.88,74006.5,11.05,-18.25,-19.27,0,*75
1500872682.44,4876,20.88,74006.5,11.03,-18.17,-19.23,0,*75
1500872683.67,4877,20.88,74010.8,11.03,-18.07,-18.99,0,*75
1500872684.92,4878,20.88,74010.3,11.03,-17.79,-18.69,0,*73
1500872686.2,4879,20.88,74010.5,11.03,-18.35,-19.31,0,*79
1500872687.41,4880,20.88,74008.0,11.05,-18.69,-19.75,0,*70
1500872688.64,4881,20.88,74010.3,11.05,-18.49,-19.41,0,*74
1500872689.89,4882,20.88,74008.0,11.03,-17.93,-18.99,0,*7D
1500872691.16,4883,20.88,74010.8,11.03,-18.69,-19.57,0,*75
1500872692.39,4884,20.88,74010.3,11.05,-18.55,-19.47,0,*7A
1500872693.6,4885,20.88,74008.8,11.05,-18.49,-19.47,0,*76
1500872694.83,4886,20.88,74006.8,11.05,-18.41,-19.41,0,*7B
1500872696.06,4887,20.88,74006.8,11.03,-18.65,-19.47,0,*7C
1500872697.35,4888,20.88,74004.3,11.03,-18.55,-19.57,0,*71
1500872698.55,4889,20.88,74006.5,11.05,-18.07,-19.07,0,*74
1500872699.77,4890,20.88,74006.0,11.05,-18.01,-19.07,0,*7A
1500872700.98,4891,20.88,74010.5,11.05,-17.73,-18.65,0,*74
1500872702.21,4892,20.88,74008.5,11.05,-18.01,-19.13,0,*7D
1500872703.47,4893,20.88,74014.0,11.07,-18.45,-19.41,0,*79
1500872704.72,4894,20.88,74012.0,11.07,-17.59,-18.49,0,*75
1500872706.01,4895,20.88,74012.0,11.07,-17.97,-18.93,0,*71
1500872707.23,4896,20.88,74014.8,11.07,-17.73,-18.79,0,*7C
1500872708.46,4897,20.88,74010.3,11.11,-17.83,-18.73,0,*7F
1500872709.72,4898,20.88,74012.5,11.11,-17.63,-18.45,0,*7B
1500872710.98,4899,20.88,74014.3,11.11,-17.21,-18.11,0,*7D
1500872712.21,4900,20.88,74010.5,11.11,-17.49,-18.41,0,*77
1500872713.46,4901,20.88,74010.3,11.13,-17.03,-17.93,0,*7A
1500872714.71,4902,20.88,74012.8,11.13,-17.03,-17.93,0,*79
1500872715.96,4903,20.88,74014.3,11.17,-17.63,-18.55,0,*7F
1500872717.19,4904,20.88,74012.8,11.17,-17.03,-17.87,0,*7E
1500872718.39,4905,20.88,74012.3,11.17,-16.97,-17.73,0,*78
1500872719.65,4906,20.88,74012.0,11.19,-17.25,-18.21,0,*75
1500872720.88,4907,20.88,74012.3,11.19,-16.97,-17.73,0,*74
1500872722.11,4908,20.88,74014.0,11.21,-16.89,-17.79,0,*75
1500872723.31,4909,20.88,74016.3,11.21,-16.93,-17.73,0,*75
1500872724.6,4910,20.88,74012.0,11.23,-17.17,-17.97,0,*78
1500872725.85,4911,20.88,74012.8,11.25,-17.45,-18.55,0,*79
1500872727.05,4912,20.88,74012.0,11.25,-17.87,-18.83,0,*7F
1500872728.25,4913,20.88,74012.8,11.25,-18.07,-19.03,0,*70
1500872729.48,4914,20.88,74014.0,11.25,-18.79,-19.61,0,*7A
1500872730.76,4915,20.88,74012.5,11.23,-18.93,-19.85,0,*73
1500872731.99,4916,20.88,74014.0,11.23,-18.83,-19.75,0,*7E
1500872733.2,4917,20.88,74010.3,11.21,-18.83,-19.75,0,*7D
1500872734.42,4918,20.88,74012.5,11.25,-18.49,-19.31,0,*70
1500872735.65,4919,20.88,74010.3,11.21,-17.63,-18.41,0,*74
1500872736.85,4920,20.88,74008.5,11.25,-17.49,-18.41,0,*72
1500872738.08,4921,20.88,74010.0,11.23,-18.21,-19.13,0,*72
1500872739.33,4922,20.88,74010.0,11.23,-17.21,-18.21,0,*7E
1500872740.57,4923,20.88,74006.8,11.23,-16.97,-17.87,0,*70
1500872741.8,4924,20.88,74006.8,11.23,-17.49,-18.41,0,*70
1500872742.99,4925,20.88,74004.8,11.25,-17.31,-18.21,0,*7E
1500872744.22,4926,20.88,74010.0,11.27,-17.87,-18.79,0,*7F
1500872745.47,4927,20.88,74008.8,11.27,-17.87,-18.89,0,*71
1500872746.7,4928,20.88,74004.3,11.27,-17.83,-18.73,0,*7F
1500872747.9,4929,20.88,74004.3,11.29,-18.45,-19.37,0,*74
1500872749.18,4930,20.88,74004.3,11.27,-17.93,-18.93,0,*79
1500872750.41,4931,20.88,74006.3,11.29,-18.07,-18.93,0,*74
1500872751.69,4932,20.88,74006.0,11.27,-17.45,-18.31,0,*78
1500872752.91,4933,20.88,74004.8,11.27,-18.21,-19.07,0,*70
1500872754.16,4934,20.88,74004.8,11.29,-18.01,-18.93,0,*77
1500872755.42,4935,20.88,74006.0,11.29,-17.45,-18.35,0,*75
1500872756.63,4936,20.88,74006.3,11.29,-16.79,-17.69,0,*7E
1500872757.86,4937,20.88,74010.5,11.35,-16.89,-17.79,0,*7C
1500872759.06,4938,20.88,74010.3,11.35,-17.35,-18.25,0,*73
1500872760.26,4939,20.88,74010.8,11.35,-17.73,-18.65,0,*74
1500872761.46,4940,20.88,74010.3,11.35,-18.11,-18.99,0,*72
1500872762.69,4941,20.88,74008.0,11.35,-18.07,-18.89,0,*75
1500872763.94,4942,20.88,74010.5,11.35,-17.59,-18.55,0,*73
1500872765.14,4943,20.94,74012.0,11.35,-18.25,-19.17,0,*71
1500872766.35,4944,20.88,74010.5,11.35,-18.25,-19.13,0,*72
1500872767.55,4945,20.88,74012.8,11.35,-18.07,-18.99,0,*70
1500872768.81,4946,20.88,74012.0,11.35,-17.97,-18.89,0,*74
1500872770.06,4947,20.88,74010.5,11.35,-18.35,-19.27,0,*77
1500872771.3,4948,20.88,74008.0,11.37,-18.21,-19.13,0,*78
1500872772.53,4949,20.88,74012.8,11.37,-17.73,-18.65,0,*71
1500872773.76,4950,20.88,74014.3,11.35,-17.21,-18.21,0,*7C
1500872775.01,4951,20.88,74010.0,11.37,-17.63,-18.65,0,*79
1500872776.24,4952,20.94,74014.3,11.35,-18.41,-19.41,0,*70
1500872777.45,4953,20.94,74010.3,11.35,-18.07,-19.13,0,*74
1500872778.71,4954,20.88,74004.5,11.35,-18.35,-19.31,0,*72
1500872779.97,4955,20.88,74006.3,11.35,-18.55,-19.57,0,*75
1500872781.21,4956,20.94,74008.5,11.35,-19.27,-20.25,0,*7D
1500872782.44,4957,20.88,74008.5,11.35,-19.03,-20.19,0,*75
1500872783.67,4958,20.88,74010.8,11.35,-17.79,-18.65,0,*79
1500872784.93,4959,20.88,74008.8,11.37,-17.45,-18.65,0,*75
1500872786.15,4960,20.88,74008.5,11.35,-17.93,-18.83,0,*7E
1500872787.4,4961,20.88,74014.8,11.35,-17.63,-18.55,0,*7B
1500872788.64,4962,20.88,74008.8,11.37,-18.07,-19.13,0,*74
1500872789.84,4963,20.94,74014.3,11.39,-18.45,-19.51,0,*7B
1500872791.05,4964,20.88,74012.8,11.35,-18.07,-19.13,0,*70
1500872792.28,4965,20.88,74008.3,11.37,-17.83,-18.79,0,*7D
1500872793.5,4966,20.94,74012.0,11.35,-17.63,-18.69,0,*73
1500872794.73,4967,20.88,74008.5,11.37,-17.83,-18.83,0,*7A
1500872795.95,4968,20.88,74010.0,11.39,-18.01,-18.99,0,*75
1500872797.18,4969,20.88,74010.3,11.37,-17.83,-18.83,0,*74
1500872798.41,4970,20.88,74008.5,11.37,-17.73,-18.65,0,*7B
1500872799.64,4971,20.88,74010.0,11.37,-17.35,-18.25,0,*7C
1500872800.86,4972,20.94,74012.0,11.41,-17.69,-18.65,0,*73
1500872802.11,4973,20.88,74010.3,11.39,-17.59,-18.59,0,*71
1500872803.36,4974,20.88,74012.0,11.41,-17.45,-18.45,0,*79
1500872804.58,4975,20.94,74012.0,11.41,-18.17,-18.99,0,*71
1500872805.8,4976,20.94,74012.0,11.41,-18.17,-19.07,0,*74
1500872807.04,4977,20.88,74010.3,11.43,-18.01,-18.89,0,*77
1500872808.24,4978,20.88,74010.3,11.43,-18.17,-19.03,0,*7C
1500872809.49,4979,20.94,74010.3,11.43,-17.11,-17.97,0,*77
1500872810.74,4980,20.94,74008.8,11.43,-17.11,-17.97,0,*71
1500872812.0,4981,20.88,74008.0,11.45,-16.55,-17.45,0,*78
1500872813.25,4982,20.88,74008.0,11.45,-16.59,-17.45,0,*77
1500872814.51,4983,20.94,74008.5,11.49,-17.17,-18.07,0,*78
1500872815.77,4984,20.88,74008.0,11.47,-17.45,-18.35,0,*77
1500872817.02,4985,20.88,74010.0,11.49,-17.41,-18.49,0,*77
1500872818.24,4986,20.88,74010.3,11.49,-17.73,-18.69,0,*77
1500872819.48,4987,20.88,74006.8,11.49,-18.01,-18.99,0,*73
1500872820.69,4988,20.94,74008.8,11.49,-18.17,-19.07,0,*7D
1500872821.94,4989,20.94,74010.5,11.49,-17.31,-18.31,0,*73
1500872823.19,4990,20.94,74010.0,11.51,-18.01,-18.89,0,*7D
1500872824.39,4991,20.88,74008.3,11.51,-18.25,-19.17,0,*7C
1500872825.62,4992,20.88,74008.8,11.51,-17.41,-18.41,0,*70
1500872826.87,4993,20.94,74010.3,11.51,-17.21,-18.01,0,*73
1500872828.11,4994,20.94,74012.0,11.53,-17.11,-18.25,0,*73
1500872829.36,4995,20.88,74008.5,11.53,-17.25,-18.25,0,*75
1500872830.61,4996,20.94,74010.3,11.53,-17.11,-18.11,0,*76
1500872831.83,4997,20.94,74012.0,11.57,-16.93,-17.83,0,*7C
1500872833.08,4998,20.94,74014.0,11.57,-16.79,-17.79,0,*72
1500872834.3,4999,20.88,74010.5,11.59,-17.25,-18.21,0,*77
1500872835.52,5000,20.94,74012.8,11.59,-17.59,-18.49,0,*7A
1500872836.78,5001,20.94,74012.0,11.59,-17.45,-18.35,0,*7D
1500872838.03,5002,20.94,74012.8,11.61,-17.25,-18.07,0,*72
1500872839.26,5003,20.88,74010.5,11.61,-16.97,-17.87,0,*7C
1500872840.49,5004,20.94,74012.0,11.61,-16.83,-17.73,0,*75
1500872841.73,5005,20.88,74010.3,11.61,-17.31,-18.35,0,*71
1500872842.95,5006,20.88,74012.8,11.63,-18.25,-19.23,0,*7C
1500872844.16,5007,20.94,74012.5,11.63,-18.25,-19.17,0,*7A
1500872845.38,5008,20.88,74012.8,11.61,-17.73,-18.65,0,*7F
1500872846.58,5009,20.94,74014.5,11.63,-17.83,-18.73,0,*74
1500872847.81,5010,20.94,74014.5,11.63,-17.21,-18.25,0,*77
1500872849.06,5011,20.94,74018.3,11.63,-17.11,-18.01,0,*73
1500872850.28,5012,20.88,74014.5,11.65,-16.89,-17.79,0,*76
1500872851.51,5013,20.94,74016.0,11.67,-16.59,-17.69,0,*79
1500872852.76,5014,20.94,74016.0,11.67,-16.89,-17.63,0,*79
1500872854.02,5015,20.88,74016.0,11.71,-16.59,-17.59,0,*7B
1500872855.24,5016,20.94,74016.5,11.71,-16.83,-17.73,0,*77
1500872856.53,5017,20.88,74014.3,11.71,-16.69,-17.59,0,*7A
1500872857.76,5018,20.88,74012.5,11.71,-16.97,-17.87,0,*77
1500872859.01,5019,20.94,74016.0,11.71,-17.11,-18.17,0,*7F
1500872860.26,5020,20.94,74016.8,11.71,-17.79,-18.69,0,*72
1500872861.5,5021,20.94,74012.3,11.73,-17.11,-18.01,0,*71
1500872862.72,5022,20.94,74012.0,11.73,-17.69,-18.59,0,*70
1500872863.99,5023,20.94,74016.3,11.75,-17.63,-18.55,0,*71
1500872865.19,5024,20.94,74016.0,11.73,-18.11,-19.17,0,*7D
1500872866.42,5025,20.94,74016.0,11.79,-18.17,-19.13,0,*74
1500872867.62,5026,20.94,74016.5,11.73,-18.11,-19.17,0,*7F
1500872868.84,5027,20.94,74014.5,11.75,-18.25,-19.17,0,*7F
1500872870.04,5028,20.88,74008.5,11.73,-18.65,-19.71,0,*72
1500872871.25,5029,20.94,74012.8,11.73,-19.37,-20.29,0,*72
1500872872.49,5030,20.94,74012.3,11.69,-19.13,-20.15,0,*78
1500872873.7,5031,20.94,74010.8,11.69,-19.13,-19.99,0,*77
1500872874.9,5032,20.94,74008.5,11.69,-19.75,-20.69,0,*71
1500872876.1,5033,20.88,74004.3,11.69,-18.99,-19.91,0,*7E
1500872877.33,5034,20.94,74004.3,11.69,-18.21,-19.27,0,*77
1500872878.55,5035,20.88,74000.5,11.67,-18.11,-19.17,0,*78
1500872879.75,5036,20.88,74002.3,11.65,-19.03,-19.99,0,*7D
1500872880.95,5037,20.88,74000.0,11.65,-19.07,-20.09,0,*7B
1500872882.17,5038,20.94,74000.5,11.65,-18.59,-19.51,0,*79
1500872883.42,5039,20.94,74002.8,11.67,-18.25,-19.27,0,*70
1500872884.62,5040,20.88,73998.5,11.65,-18.65,-19.51,0,*79
1500872885.85,5041,20.94,74002.3,11.65,-17.45,-18.45,0,*71
1500872887.1,5042,20.88,74002.3,11.67,-17.21,-18.25,0,*74
1500872888.31,5043,20.94,74004.3,11.67,-17.31,-18.25,0,*74
1500872889.55,5044,20.94,74004.0,11.69,-17.35,-18.31,0,*7C
1500872890.8,5045,20.94,74004.3,11.71,-17.45,-18.41,0,*74
1500872892.02,5046,20.94,74006.8,11.69,-17.79,-18.79,0,*7A
1500872893.22,5047,20.94,74006.8,11.69,-17.87,-18.69,0,*7B
1500872894.47,5048,20.88,74006.0,11.69,-17.93,-18.93,0,*74
1500872895.68,5049,20.94,74008.8,11.69,-18.07,-19.13,0,*7E
1500872896.93,5050,20.88,74008.0,11.71,-17.59,-18.65,0,*7B
1500872898.15,5051,20.88,74006.5,11.71,-17.49,-18.41,0,*7D
1500872899.43,5052,20.94,74010.8,11.71,-18.01,-18.93,0,*72
1500872900.71,5053,20.94,74012.8,11.71,-18.35,-19.23,0,*7E